DW6513 Weather Reports


time (UTC)temp
C
wind
direction
speed
KPH
gust
KPH
rain 1hr
cm
rain 24hr
cm
rain mn
cm
humidity
%
barometer
mb
20260902192802 37 100 4.8 19.3 0.00 0.00 0.00 33 1015.6
20260902192306 37 145 4.8 19.3 0.00 0.00 0.00 35 1015.6
20260902191803 36 146 3.2 9.7 0.00 0.00 0.00 36 1015.6
20260902191302 36 302 4.8 4.8 0.00 0.00 0.00 37 1015.6
20260902185802 36 123 8.0 11.3 0.00 0.00 0.00 36 1016.0
20260902185306 36 99 8.0 14.5 0.00 0.00 0.00 37 1016.0
20260902184803 36 145 8.0 14.5 0.00 0.00 0.00 37 1016.0
20260902184302 36 94 8.0 11.3 0.00 0.00 0.00 37 1016.0
20260902183802 36 100 8.0 24.1 0.00 0.00 0.00 38 1016.0
20260902183303 36 110 4.8 14.5 0.00 0.00 0.00 38 1016.0
20260902182802 36 144 3.2 9.7 0.00 0.00 0.00 40 1016.2
20260902182306 35 171 6.4 14.5 0.00 0.00 0.00 41 1016.2
20260902181802 34 99 8.0 14.5 0.00 0.00 0.00 42 1016.2
20260902181302 33 320 8.0 19.3 0.00 0.00 0.00 41 1016.2
20260902180303 33 117 9.7 12.9 0.00 0.00 0.00 43 1016.5
20260902175803 33 300 9.7 14.5 0.00 0.00 0.00 43 1016.5
20260902175307 33 273 8.0 20.9 0.00 0.00 0.00 44 1016.5
20260902174803 33 81 8.0 20.9 0.00 0.00 0.00 45 1016.8
20260902173802 32 260 4.8 11.3 0.00 0.00 0.00 48 1016.8
20260902173303 32 162 9.7 16.1 0.00 0.00 0.00 48 1016.8
20260902171303 31 341 9.7 24.1 0.00 0.00 0.00 48 1017.0
20260902170802 32 100 8.0 24.1 0.00 0.00 0.00 47 1017.1
20260902165803 31 122 8.0 19.3 0.00 0.00 0.00 49 1017.1
20260902165308 31 88 9.7 19.3 0.00 0.00 0.00 48 1017.1
20260902164803 31 322 8.0 25.7 0.00 0.00 0.00 48 1017.2
20260902164302 31 83 9.7 29.0 0.00 0.00 0.00 48 1017.2
20260902163802 31 324 9.7 29.0 0.00 0.00 0.00 49 1017.2
20260902163303 31 100 12.9 24.1 0.00 0.00 0.00 48 1017.2
20260902162802 31 210 11.3 24.1 0.00 0.00 0.00 48 1017.3
20260902162306 31 250 9.7 16.1 0.00 0.00 0.00 50 1017.3
20260902161802 31 77 9.7 29.0 0.00 0.00 0.00 50 1017.3
20260902161302 30 83 8.0 29.0 0.00 0.00 0.00 50 1017.3
20260902160803 30 347 8.0 12.9 0.00 0.00 0.00 51 1017.6
20260902155803 30 303 11.3 16.1 0.00 0.00 0.00 51 1017.6
20260902155306 30 83 12.9 16.1 0.00 0.00 0.00 51 1017.6
20260902154802 30 256 12.9 14.5 0.00 0.00 0.00 51 1017.1
20260902154303 30 94 9.7 19.3 0.00 0.00 0.00 51 1017.1
20260902153802 30 257 9.7 29.0 0.00 0.00 0.00 51 1017.1
20260902153303 30 140 8.0 29.0 0.00 0.00 0.00 51 1017.1
20260902152803 30 75 8.0 12.9 0.00 0.00 0.00 53 1017.3
20260902152307 30 118 8.0 16.1 0.00 0.00 0.00 53 1017.3
20260902151803 30 101 8.0 8.0 0.00 0.00 0.00 56 1017.3
20260902151303 29 42 4.8 11.3 0.00 0.00 0.00 56 1017.3
20260902150803 29 258 4.8 9.7 0.00 0.00 0.00 57 1017.1
20260902145803 28 166 3.2 11.3 0.00 0.00 0.00 58 1017.1
20260902145305 28 78 4.8 11.3 0.00 0.00 0.00 58 1017.1
20260902144802 28 115 4.8 9.7 0.00 0.00 0.00 59 1017.2
20260902144303 28 145 4.8 11.3 0.00 0.00 0.00 59 1017.2
20260902143802 28 158 3.2 9.7 0.00 0.00 0.00 60 1017.2
20260902143303 28 154 4.8 8.0 0.00 0.00 0.00 60 1017.2
20260902142803 27 251 3.2 11.3 0.00 0.00 0.00 60 1017.1
20260902141802 27 237 3.2 8.0 0.00 0.00 0.00 61 1017.1
20260902141302 27 145 3.2 12.9 0.00 0.00 0.00 62 1017.1
20260902140802 27 121 3.2 12.9 0.00 0.00 0.00 62 1017.4
20260902135306 26 158 1.6 8.0 0.00 0.00 0.00 65 1017.4
20260902134303 26 145 1.6 8.0 0.00 0.00 0.00 67 1017.6
20260902133802 26 55 1.6 8.0 0.00 0.00 0.00 67 1017.6
20260902133303 26 122 1.6 8.0 0.00 0.00 0.00 69 1017.6
20260902132803 25 143 0.0 8.0 0.00 0.00 0.00 70 1016.9
20260902132306 25 80 0.0 0.0 0.00 0.00 0.00 70 1016.9
20260902131303 25 120 0.0 3.2 0.00 0.00 0.00 71 1016.9
20260902130803 25 348 0.0 0.0 0.00 0.00 0.00 72 1017.5
20260902130302 24 101 0.0 0.0 0.00 0.00 0.00 73 1017.5
20260902125803 24 143 0.0 0.0 0.00 0.00 0.00 73 1017.5
20260902125305 24 127 0.0 0.0 0.00 0.00 0.00 73 1017.5
20260902124303 24 110 0.0 3.2 0.00 0.00 0.00 74 1017.2
20260902123803 23 139 0.0 3.2 0.00 0.00 0.00 75 1017.2
20260902123302 23 62 0.0 0.0 0.00 0.00 0.00 75 1017.2
20260902122802 23 212 0.0 0.0 0.00 0.00 0.00 76 1017.2
20260902122305 23 163 0.0 0.0 0.00 0.00 0.00 77 1017.2
20260902121803 23 250 0.0 0.0 0.00 0.00 0.00 76 1017.2
20260902121303 23 176 0.0 0.0 0.00 0.00 0.00 76 1017.2
20260902120303 23 181 0.0 0.0 0.00 0.00 0.00 77 1016.9
20260902115803 23 121 0.0 0.0 0.00 0.00 0.00 76 1016.9
20260902115306 23 100 0.0 0.0 0.00 0.00 0.00 75 1016.9
20260902114302 23 100 0.0 0.0 0.00 0.00 0.00 73 1016.6
20260902113802 23 80 0.0 0.0 0.00 0.00 0.00 74 1016.6
20260902113303 23 145 0.0 0.0 0.00 0.00 0.00 74 1016.6
20260902112802 23 167 0.0 0.0 0.00 0.00 0.00 74 1016.7
20260902112305 23 143 0.0 0.0 0.00 0.00 0.00 75 1016.7
20260902111803 23 146 0.0 0.0 0.00 0.00 0.00 74 1016.7
20260902111303 23 129 0.0 0.0 0.00 0.00 0.00 74 1016.7
20260902110803 23 145 0.0 0.0 0.00 0.00 0.00 74 1016.6
20260902110303 23 92 0.0 0.0 0.00 0.00 0.00 74 1016.6
20260902105306 23 125 0.0 0.0 0.00 0.00 0.00 74 1016.5
20260902104803 23 278 0.0 0.0 0.00 0.00 0.00 73 1016.4
20260902104302 23 195 0.0 0.0 0.00 0.00 0.00 73 1016.4
20260902103804 23 279 0.0 0.0 0.00 0.00 0.00 73 1016.4
20260902103302 23 186 0.0 0.0 0.00 0.00 0.00 73 1016.4
20260902102803 23 322 0.0 0.0 0.00 0.00 0.00 72 1016.3
20260902102307 23 145 0.0 0.0 0.00 0.00 0.00 72 1016.3
20260902101803 23 187 0.0 0.0 0.00 0.00 0.00 72 1016.3
20260902100802 23 56 0.0 3.2 0.00 0.00 0.00 72 1016.2
20260902095306 24 154 0.0 0.0 0.00 0.00 0.00 71 1016.2
20260902094802 24 209 0.0 0.0 0.00 0.00 0.00 71 1015.7
20260902094302 24 127 0.0 0.0 0.00 0.00 0.00 71 1015.7
20260902093803 24 325 0.0 0.0 0.00 0.00 0.00 71 1015.7
20260902093302 24 285 0.0 4.8 0.00 0.00 0.00 71 1015.7
20260902092803 24 144 0.0 4.8 0.00 0.00 0.00 71 1016.0
20260902092305 24 136 0.0 0.0 0.00 0.00 0.00 71 1016.0
20260902091803 24 57 0.0 0.0 0.00 0.00 0.00 71 1016.0
20260902091303 24 114 0.0 0.0 0.00 0.00 0.00 71 1016.0
20260902090803 24 142 0.0 3.2 0.00 0.00 0.00 71 1016.0
20260902090302 24 124 0.0 3.2 0.00 0.00 0.00 71 1016.0
20260902085803 24 147 1.6 0.0 0.00 0.00 0.00 71 1016.0
20260902085306 24 100 1.6 4.8 0.00 0.00 0.00 71 1016.0
20260902084803 24 122 1.6 3.2 0.00 0.00 0.00 71 1016.0
20260902084303 24 140 1.6 3.2 0.00 0.00 0.00 71 1016.0
20260902083803 25 121 1.6 3.2 0.00 0.00 0.00 71 1016.0
20260902082803 25 123 1.6 4.8 0.00 0.00 0.00 70 1015.7
20260902082308 25 112 1.6 3.2 0.00 0.00 0.00 70 1015.7
20260902081802 25 122 1.6 8.0 0.00 0.00 0.00 70 1015.7
20260902080803 25 257 1.6 0.0 0.00 0.00 0.00 69 1016.1
20260902080303 25 132 1.6 9.7 0.00 0.00 0.00 69 1016.1
20260902075802 25 146 1.6 9.7 0.00 0.00 0.00 69 1016.1
20260902075306 25 157 1.6 8.0 0.00 0.00 0.00 69 1016.1
20260902074803 25 351 1.6 9.7 0.00 0.00 0.00 69 1015.9
20260902074302 25 145 3.2 9.7 0.00 0.00 0.00 69 1015.9
20260902073802 25 209 1.6 8.0 0.00 0.00 0.00 69 1015.9
20260902073303 25 122 3.2 8.0 0.00 0.00 0.00 69 1015.9
20260902072308 25 122 1.6 4.8 0.00 0.00 0.00 69 1016.0
20260902071303 25 134 1.6 0.0 0.00 0.00 0.00 68 1016.0
20260902070303 25 325 1.6 8.0 0.00 0.00 0.00 68 1015.9
20260902065803 25 114 1.6 4.8 0.00 0.00 0.00 67 1015.9
20260902065306 25 151 1.6 4.8 0.00 0.00 0.00 67 1015.9
20260902063802 25 142 3.2 4.8 0.00 0.00 0.00 67 1016.2
20260902063303 25 104 3.2 8.0 0.00 0.00 0.00 67 1016.2
20260902062803 25 101 1.6 8.0 0.00 0.00 0.00 67 1016.3
20260902061802 25 143 3.2 4.8 0.00 0.00 0.00 67 1016.3
20260902060303 26 145 3.2 8.0 0.00 0.00 0.00 67 1016.2
20260902055803 26 124 1.6 8.0 0.00 0.00 0.00 66 1016.2
20260902055306 26 145 1.6 4.8 0.00 0.00 0.00 66 1016.2
20260902054802 26 143 1.6 4.8 0.00 0.00 0.00 66 1016.0
20260902054302 26 122 3.2 4.8 0.00 0.00 0.00 65 1016.0
20260902053803 26 122 1.6 4.8 0.00 0.00 0.00 65 1016.0
20260902053303 26 145 1.6 4.8 0.00 0.00 0.00 64 1016.0
20260902052803 26 102 1.6 4.8 0.00 0.00 0.00 63 1016.2
20260902052306 26 82 1.6 8.0 0.00 0.00 0.00 62 1016.2
20260902051803 26 146 3.2 8.0 0.00 0.00 0.00 62 1016.2
20260902051303 26 100 3.2 3.2 0.00 0.00 0.00 62 1016.2
20260902050819 26 102 3.2 4.8 0.00 0.00 0.00 62 1016.0
20260902050302 26 120 3.2 4.8 0.00 0.00 0.00 61 1016.0
20260902045803 26 167 3.2 8.0 0.00 0.00 0.00 61 1016.0
20260902045306 26 141 3.2 8.0 0.00 0.00 0.00 61 1016.0
20260902044803 26 122 1.6 8.0 0.00 0.00 0.00 61 1015.7
20260902044303 26 20 1.6 4.8 0.00 0.00 0.00 60 1015.7
20260902043803 26 122 1.6 4.8 0.00 0.00 0.00 60 1015.7
20260902043302 26 141 0.0 3.2 0.00 0.00 0.00 59 1015.7
20260902042802 26 188 0.0 0.0 0.00 0.00 0.00 59 1015.7
20260902042308 26 181 0.0 3.2 0.00 0.00 0.00 60 1015.7
20260902041803 26 123 1.6 3.2 0.00 0.00 0.00 58 1015.7
20260902041302 26 138 1.6 8.0 0.00 0.00 0.00 58 1015.7
20260902040803 26 121 1.6 8.0 0.00 0.00 0.00 58 1015.9
20260902040303 26 104 1.6 8.0 0.00 0.00 0.00 58 1015.9
20260902035803 27 144 1.6 8.0 0.00 0.00 0.00 58 1015.9
20260902035305 26 92 0.0 4.8 0.00 0.00 0.00 58 1015.9
20260902034803 26 80 0.0 0.0 0.00 0.00 0.00 57 1016.0
20260902034303 26 104 0.0 3.2 0.00 0.00 0.00 56 1016.0
20260902033803 27 123 0.0 3.2 0.00 0.00 0.00 56 1016.0
20260902033303 27 161 0.0 0.0 0.00 0.00 0.00 57 1016.0
20260902032803 27 255 0.0 0.0 0.00 0.00 0.00 56 1015.9
20260902032305 27 136 0.0 0.0 0.00 0.00 0.00 55 1015.9
20260902031803 27 257 0.0 3.2 0.00 0.00 0.00 55 1015.9
20260902031303 27 112 0.0 3.2 0.00 0.00 0.00 55 1015.9
20260902030802 27 99 0.0 3.2 0.00 0.00 0.00 55 1015.7
20260902030303 27 223 0.0 0.0 0.00 0.00 0.00 55 1015.7
20260902025803 27 96 0.0 3.2 0.00 0.00 0.00 54 1015.7
20260902025306 27 125 0.0 0.0 0.00 0.00 0.00 55 1015.7
20260902024803 27 99 0.0 4.8 0.00 0.00 0.00 54 1015.5
20260902024303 27 148 1.6 0.0 0.00 0.00 0.00 54 1015.5
20260902023803 27 261 1.6 3.2 0.00 0.00 0.00 54 1015.5
20260902023303 27 142 1.6 4.8 0.00 0.00 0.00 54 1015.5
20260902022803 27 11 0.0 3.2 0.00 0.00 0.00 54 1015.3
20260902022305 27 137 0.0 0.0 0.00 0.00 0.00 53 1015.3
20260902021803 27 12 0.0 0.0 0.00 0.00 0.00 54 1015.3
20260902021303 27 259 0.0 0.0 0.00 0.00 0.00 54 1015.3
20260902020303 28 312 0.0 4.8 0.00 0.00 0.00 53 1015.4
20260902015803 28 210 0.0 0.0 0.00 0.00 0.00 53 1015.4
20260902015306 28 104 0.0 0.0 0.00 0.00 0.00 53 1015.4
20260902014802 28 257 0.0 0.0 0.00 0.00 0.00 52 1015.2
20260902014303 28 109 0.0 0.0 0.00 0.00 0.00 52 1015.2
20260902013803 28 94 0.0 0.0 0.00 0.00 0.00 51 1015.2
20260902013303 28 112 0.0 0.0 0.00 0.00 0.00 50 1015.2
20260902012308 28 336 0.0 0.0 0.00 0.00 0.00 50 1015.2
20260902011803 29 135 0.0 3.2 0.00 0.00 0.00 50 1015.2
20260902011303 29 151 0.0 3.2 0.00 0.00 0.00 50 1015.2
20260902010803 29 142 0.0 3.2 0.00 0.00 0.00 49 1014.9
20260902010303 29 21 0.0 3.2 0.00 0.00 0.00 49 1014.9
20260902005803 30 235 0.0 8.0 0.00 0.00 0.00 48 1014.9
20260902005305 30 198 0.0 0.0 0.00 0.00 0.00 47 1014.9
20260902004803 30 282 0.0 4.8 0.00 0.00 0.00 47 1014.8
20260902004302 30 269 1.6 4.8 0.00 0.00 0.00 47 1014.8
20260902003803 30 55 1.6 4.8 0.00 0.00 0.00 46 1014.8
20260902003303 30 100 0.0 3.2 0.00 0.00 0.00 47 1014.8
20260902002306 31 145 0.0 3.2 0.00 0.00 0.00 45 1014.9
20260902001803 31 347 1.6 4.8 0.00 0.00 0.00 44 1014.9
20260902001302 31 233 1.6 4.8 0.00 0.00 0.00 44 1014.9
20260902000803 31 79 1.6 4.8 0.00 0.00 0.00 43 1015.1
20260902000304 31 104 1.6 4.8 0.00 0.00 0.00 43 1015.1
20260901235803 31 81 1.6 8.0 0.00 0.00 0.00 42 1015.1
20260901235307 32 122 1.6 11.3 0.00 0.00 0.00 42 1015.1
20260901234803 32 169 1.6 3.2 0.00 0.00 0.00 41 1015.1
20260901234303 32 149 1.6 9.7 0.00 0.00 0.00 41 1015.1
20260901233803 32 81 1.6 9.7 0.00 0.00 0.00 41 1015.1
20260901233302 32 294 1.6 4.8 0.00 0.00 0.00 41 1015.1
20260901232306 33 341 3.2 16.1 0.00 0.00 0.00 39 1015.2
20260901231803 33 120 1.6 16.1 0.00 0.00 0.00 36 1015.2
20260901231303 34 44 1.6 4.8 0.00 0.00 0.00 36 1015.2
20260901230803 35 8 1.6 4.8 0.00 0.00 0.00 35 1015.0
20260901230303 34 275 1.6 8.0 0.00 0.00 0.00 35 1015.0
20260901225803 35 145 1.6 8.0 0.00 0.00 0.00 33 1015.0
20260901225306 36 165 1.6 4.8 0.00 0.00 0.00 32 1015.0
20260901224802 36 100 1.6 3.2 0.00 0.00 0.00 32 1014.7
20260901224303 36 340 3.2 4.8 0.00 0.00 0.00 33 1014.7
20260901223303 35 253 4.8 9.7 0.00 0.00 0.00 32 1014.7
20260901222803 36 101 1.6 9.7 0.00 0.00 0.00 31 1014.9
20260901221803 37 124 3.2 4.8 0.00 0.00 0.00 30 1014.9
20260901221303 37 88 3.2 8.0 0.00 0.00 0.00 28 1014.9
20260901220803 39 80 4.8 9.7 0.00 0.00 0.00 30 1014.9
20260901220302 38 84 4.8 19.3 0.00 0.00 0.00 30 1014.9
20260901215306 38 21 1.6 8.0 0.00 0.00 0.00 31 1014.9
20260901214803 39 166 1.6 3.2 0.00 0.00 0.00 30 1014.9
20260901213802 39 97 1.6 12.9 0.00 0.00 0.00 31 1014.9
20260901213303 38 74 1.6 8.0 0.00 0.00 0.00 32 1014.9
20260901212803 36 256 1.6 9.7 0.00 0.00 0.00 32 1015.0
20260901212306 36 286 1.6 9.7 0.00 0.00 0.00 31 1015.0
20260901211803 37 102 1.6 3.2 0.00 0.00 0.00 31 1015.0
20260901211303 38 117 3.2 8.0 0.00 0.00 0.00 30 1015.0
20260901210803 38 100 4.8 8.0 0.00 0.00 0.00 29 1015.2
20260901205803 38 104 3.2 12.9 0.00 0.00 0.00 29 1015.2
20260901205306 38 145 1.6 3.2 0.00 0.00 0.00 30 1015.2
20260901204803 38 144 1.6 3.2 0.00 0.00 0.00 31 1015.7
20260901204303 37 156 1.6 9.7 0.00 0.00 0.00 30 1015.7
20260901203803 40 255 1.6 9.7 0.00 0.00 0.00 28 1015.7
20260901203303 39 111 1.6 3.2 0.00 0.00 0.00 30 1015.7
20260901202803 40 255 1.6 4.8 0.00 0.00 0.00 26 1015.9
20260901202306 41 82 0.0 0.0 0.00 0.00 0.00 28 1015.9
20260901201804 40 279 1.6 0.0 0.00 0.00 0.00 28 1015.9
20260901201303 40 222 3.2 4.8 0.00 0.00 0.00 27 1015.9
20260901200803 40 178 3.2 8.0 0.00 0.00 0.00 26 1016.0
20260901200303 40 180 3.2 12.9 0.00 0.00 0.00 26 1016.0
20260901195803 40 145 1.6 12.9 0.00 0.00 0.00 27 1016.0
20260901195305 40 168 1.6 3.2 0.00 0.00 0.00 29 1016.0
20260901194303 38 136 4.8 19.3 0.00 0.00 0.00 30 1016.9
20260901193804 38 126 8.0 19.3 0.00 0.00 0.00 28 1016.9
20260901193303 38 100 4.8 9.7 0.00 0.00 0.00 31 1016.9